JAL255 RJTT-RJOA

Flight info

Callsign JAL255
Flight time 1h 11m
Altitude 30000
Route TIARA GUSRO Y20 KAMMY Y202 AMURO
Aircraft B738/M-SABDFGRVYL/LB2

Departure

Time 2026-05-04 04:43
Airport Tokyo Haneda International Airport (RJTT)

Arrival

Time 2026-05-04 05:54
Airport Hiroshima Airport (RJOA)
Time Latitude Longitude Altitude Speed Heading
2026-05-04 04:14 35.54487 139.78471 26 ft 0 kts 60°
2026-05-04 04:33 35.54483 139.78464 26 ft 2 kts 60°
2026-05-04 04:33 35.54475 139.78448 25 ft 2 kts 59°
2026-05-04 04:33 35.54468 139.78433 24 ft 2 kts 60°
2026-05-04 04:33 35.54462 139.78420 24 ft 0 kts 60°
2026-05-04 04:34 35.54455 139.78407 23 ft 2 kts 33°
2026-05-04 04:34 35.54441 139.78401 23 ft 2 kts
2026-05-04 04:34 35.54427 139.78404 22 ft 1 kts 335°
2026-05-04 04:34 35.54421 139.78407 22 ft 1 kts 328°
2026-05-04 04:35 35.54419 139.78409 22 ft 0 kts 329°
2026-05-04 04:36 35.54422 139.78407 22 ft 2 kts 329°
2026-05-04 04:37 35.54591 139.78250 20 ft 12 kts 269°
2026-05-04 04:37 35.54610 139.78149 17 ft 12 kts 320°
2026-05-04 04:38 35.54685 139.78093 18 ft 14 kts 329°
2026-05-04 04:38 35.54782 139.78024 20 ft 17 kts 329°
2026-05-04 04:38 35.54897 139.77942 23 ft 19 kts 330°
2026-05-04 04:38 35.55022 139.77853 28 ft 21 kts 329°
2026-05-04 04:39 35.55158 139.77756 30 ft 23 kts 330°
2026-05-04 04:39 35.55288 139.77664 33 ft 19 kts 330°
2026-05-04 04:39 35.55417 139.77573 33 ft 23 kts 330°
2026-05-04 04:39 35.55557 139.77477 33 ft 22 kts 330°
2026-05-04 04:40 35.55693 139.77379 30 ft 21 kts 329°
2026-05-04 04:40 35.55802 139.77298 27 ft 12 kts 329°
2026-05-04 04:40 35.55832 139.77210 25 ft 12 kts 249°
2026-05-04 04:40 35.55806 139.77173 25 ft 2 kts 216°
2026-05-04 04:41 35.55802 139.77170 25 ft 0 kts 214°
2026-05-04 04:41 35.55796 139.77164 25 ft 1 kts 213°
2026-05-04 04:41 35.55768 139.77141 26 ft 8 kts 214°
2026-05-04 04:41 35.55701 139.77119 27 ft 10 kts 163°
2026-05-04 04:42 35.55654 139.77150 27 ft 0 kts 150°
2026-05-04 04:42 35.55650 139.77153 27 ft 6 kts 150°
2026-05-04 04:42 35.55461 139.77281 29 ft 67 kts 151°
2026-05-04 04:42 35.54805 139.77743 23 ft 145 kts 149°
2026-05-04 04:43 35.53845 139.78540 436 ft 177 kts 150°
2026-05-04 04:43 35.52915 139.79373 1512 ft 166 kts 159°
2026-05-04 04:43 35.51887 139.79942 2166 ft 165 kts 167°
2026-05-04 04:43 35.50769 139.80580 2478 ft 188 kts 160°
2026-05-04 04:44 35.49551 139.81322 2880 ft 199 kts 169°
2026-05-04 04:44 35.48166 139.81435 3270 ft 202 kts 199°
2026-05-04 04:44 35.46886 139.80690 3675 ft 212 kts 218°
2026-05-04 04:44 35.45799 139.79410 4208 ft 221 kts 236°
2026-05-04 04:45 35.45176 139.77676 4712 ft 233 kts 255°
2026-05-04 04:45 35.45181 139.75667 5392 ft 243 kts 279°
2026-05-04 04:45 35.45855 139.73749 6065 ft 256 kts 297°
2026-05-04 04:47 35.56192 139.68955 10252 ft 286 kts 312°
2026-05-04 04:47 35.58434 139.65143 11126 ft 291 kts 288°
2026-05-04 04:47 35.59325 139.62885 11547 ft 306 kts 288°
2026-05-04 04:48 35.60183 139.60759 12039 ft 315 kts 288°
2026-05-04 04:49 35.63983 139.51654 15077 ft 322 kts 286°
2026-05-04 04:49 35.64913 139.49214 15814 ft 319 kts 282°
2026-05-04 04:49 35.65553 139.46701 16613 ft 309 kts 272°
2026-05-04 04:49 35.65818 139.44132 17220 ft 307 kts 266°
2026-05-04 04:50 35.65886 139.41539 17951 ft 305 kts 263°
2026-05-04 04:50 35.65898 139.38947 18576 ft 309 kts 263°
2026-05-04 04:50 35.65911 139.36308 19088 ft 315 kts 263°
2026-05-04 04:50 35.65940 139.33615 19733 ft 317 kts 263°
2026-05-04 04:51 35.65978 139.30922 20465 ft 317 kts 263°
2026-05-04 04:51 35.66019 139.28201 21012 ft 321 kts 262°
2026-05-04 04:51 35.66060 139.25453 21581 ft 324 kts 262°
2026-05-04 04:51 35.66100 139.22696 22111 ft 328 kts 263°
2026-05-04 04:52 35.66143 139.19862 22600 ft 333 kts 262°
2026-05-04 04:52 35.66188 139.17030 23247 ft 333 kts 263°
2026-05-04 04:52 35.66231 139.14200 23839 ft 334 kts 262°
2026-05-04 04:52 35.66219 139.11365 24128 ft 341 kts 260°
2026-05-04 04:53 35.66105 139.08519 24921 ft 335 kts 259°
2026-05-04 04:53 35.65960 139.05669 25383 ft 338 kts 259°
2026-05-04 04:53 35.65810 139.02843 25787 ft 343 kts 258°
2026-05-04 04:53 35.65657 138.99892 26253 ft 346 kts 258°
2026-05-04 04:54 35.65511 138.96921 26782 ft 347 kts 258°
2026-05-04 04:54 35.65369 138.93948 27127 ft 353 kts 259°
2026-05-04 04:54 35.65226 138.90955 27589 ft 355 kts 259°
2026-05-04 04:54 35.65087 138.87959 28124 ft 355 kts 259°
2026-05-04 04:55 35.64948 138.84930 28495 ft 359 kts 258°
2026-05-04 04:55 35.64806 138.81865 29001 ft 359 kts 258°
2026-05-04 04:55 35.64663 138.78775 29338 ft 364 kts 259°
2026-05-04 04:55 35.64520 138.75684 29670 ft 365 kts 259°
2026-05-04 04:56 35.64235 138.69510 29647 ft 361 kts 259°
2026-05-04 04:56 35.63943 138.63358 29636 ft 360 kts 259°
2026-05-04 04:57 35.63630 138.57381 29641 ft 358 kts 259°
2026-05-04 04:57 35.63309 138.51320 29644 ft 358 kts 258°
2026-05-04 04:58 35.62984 138.45242 29647 ft 357 kts 258°
2026-05-04 04:58 35.62655 138.39107 29685 ft 357 kts 258°
2026-05-04 04:59 35.62330 138.33060 29705 ft 358 kts 258°
2026-05-04 04:59 35.62007 138.27020 29709 ft 352 kts 257°
2026-05-04 05:00 35.61673 138.20989 29715 ft 354 kts 258°
2026-05-04 05:01 35.61189 138.12317 29719 ft 353 kts 257°
2026-05-04 05:01 35.60853 138.06339 29722 ft 353 kts 257°
2026-05-04 05:02 35.60519 138.00371 29728 ft 349 kts 258°
2026-05-04 05:02 35.60170 137.94400 29732 ft 350 kts 259°
2026-05-04 05:03 35.59826 137.88493 29731 ft 352 kts 258°
2026-05-04 05:04 35.59135 137.76717 29735 ft 344 kts 258°
2026-05-04 05:04 35.58710 137.70937 29734 ft 349 kts 257°
2026-05-04 05:06 35.56319 137.47845 29744 ft 338 kts 250°
2026-05-04 05:07 35.55074 137.42303 29749 ft 337 kts 249°
2026-05-04 05:07 35.53820 137.36729 29740 ft 338 kts 249°
2026-05-04 05:09 35.48378 137.12024 29785 ft 335 kts 249°
2026-05-04 05:10 35.47165 137.06618 29774 ft 335 kts 249°
2026-05-04 05:10 35.45931 137.01108 29775 ft 333 kts 250°
2026-05-04 05:11 35.44715 136.95671 29768 ft 336 kts 249°
2026-05-04 05:11 35.43487 136.90173 29778 ft 331 kts 249°
2026-05-04 05:12 35.42312 136.84949 29780 ft 334 kts 250°
2026-05-04 05:12 35.41083 136.79477 29783 ft 337 kts 250°
2026-05-04 05:13 35.39851 136.74010 29783 ft 333 kts 249°
2026-05-04 05:13 35.38637 136.68654 29794 ft 335 kts 250°
2026-05-04 05:14 35.37412 136.63287 29798 ft 334 kts 250°
2026-05-04 05:14 35.36206 136.57935 29801 ft 332 kts 250°
2026-05-04 05:15 35.34981 136.52518 29796 ft 332 kts 250°
2026-05-04 05:15 35.33739 136.47069 29790 ft 337 kts 249°
2026-05-04 05:16 35.32482 136.41571 29787 ft 333 kts 250°
2026-05-04 05:16 35.31235 136.36110 29791 ft 333 kts 250°
2026-05-04 05:17 35.30012 136.30775 29780 ft 336 kts 249°
2026-05-04 05:17 35.28770 136.25363 29788 ft 332 kts 250°
2026-05-04 05:18 35.27516 136.19937 29786 ft 334 kts 250°
2026-05-04 05:18 35.26264 136.14513 29783 ft 337 kts 249°
2026-05-04 05:19 35.24999 136.09044 29794 ft 334 kts 250°
2026-05-04 05:19 35.23729 136.03561 29794 ft 336 kts 250°
2026-05-04 05:20 35.22473 135.98143 29802 ft 331 kts 249°
2026-05-04 05:20 35.21207 135.92708 29808 ft 333 kts 250°
2026-05-04 05:21 35.19946 135.87303 29818 ft 333 kts 250°
2026-05-04 05:21 35.18671 135.81871 29823 ft 335 kts 250°
2026-05-04 05:22 35.17512 135.76366 29828 ft 338 kts 252°
2026-05-04 05:22 35.16608 135.70775 29823 ft 336 kts 254°
2026-05-04 05:23 35.15729 135.65253 29821 ft 336 kts 253°
2026-05-04 05:23 35.14806 135.59654 29820 ft 334 kts 252°
2026-05-04 05:24 35.13870 135.54111 29814 ft 337 kts 253°
2026-05-04 05:24 35.12919 135.48508 29818 ft 336 kts 253°
2026-05-04 05:25 35.11975 135.42964 29817 ft 334 kts 253°
2026-05-04 05:25 35.11032 135.37444 29820 ft 334 kts 253°
2026-05-04 05:26 35.10097 135.31973 29823 ft 333 kts 252°
2026-05-04 05:26 35.09146 135.26436 29821 ft 333 kts 252°
2026-05-04 05:28 35.05334 135.04369 29821 ft 334 kts 252°
2026-05-04 05:29 35.04359 134.98793 29827 ft 333 kts 252°
2026-05-04 05:29 35.03404 134.93315 29827 ft 331 kts 252°
2026-05-04 05:31 34.99524 134.71245 29843 ft 333 kts 252°
2026-05-04 05:32 34.98492 134.65762 29840 ft 332 kts 250°
2026-05-04 05:33 34.96706 134.57636 29843 ft 332 kts 251°
2026-05-04 05:33 34.95551 134.52416 29846 ft 334 kts 250°
2026-05-04 05:34 34.94361 134.46986 29845 ft 333 kts 251°
2026-05-04 05:34 34.93185 134.41580 29852 ft 332 kts 251°
2026-05-04 05:35 34.92009 134.36169 29553 ft 327 kts 251°
2026-05-04 05:35 34.91442 134.33566 29112 ft 320 kts 249°
2026-05-04 05:35 34.90864 134.30939 28673 ft 313 kts 250°
2026-05-04 05:35 34.90306 134.28412 28257 ft 307 kts 249°
2026-05-04 05:36 34.89761 134.25944 27726 ft 304 kts 251°
2026-05-04 05:36 34.89216 134.23471 27168 ft 302 kts 250°
2026-05-04 05:36 34.88676 134.21016 26624 ft 300 kts 250°
2026-05-04 05:36 34.88139 134.18576 26062 ft 299 kts 251°
2026-05-04 05:37 34.87604 134.16156 25460 ft 298 kts 252°
2026-05-04 05:37 34.87069 134.13737 24885 ft 297 kts 251°
2026-05-04 05:37 34.86535 134.11317 24324 ft 295 kts 252°
2026-05-04 05:38 34.85486 134.06569 23236 ft 291 kts 252°
2026-05-04 05:38 34.84957 134.04181 22677 ft 290 kts 252°
2026-05-04 05:38 34.84433 134.01825 22141 ft 289 kts 253°
2026-05-04 05:38 34.83916 133.99498 21593 ft 289 kts 252°
2026-05-04 05:39 34.83392 133.97133 21036 ft 289 kts 252°
2026-05-04 05:39 34.82346 133.92441 19924 ft 288 kts 253°
2026-05-04 05:39 34.81823 133.90096 19374 ft 288 kts 255°
2026-05-04 05:40 34.80791 133.85458 18298 ft 286 kts 253°
2026-05-04 05:40 34.80267 133.83113 17750 ft 286 kts 254°
2026-05-04 05:40 34.79755 133.80818 17251 ft 285 kts 255°
2026-05-04 05:41 34.79237 133.78502 16706 ft 286 kts 256°
2026-05-04 05:41 34.78717 133.76186 16199 ft 286 kts 257°
2026-05-04 05:41 34.78186 133.73836 15646 ft 287 kts 257°
2026-05-04 05:41 34.77668 133.71530 15122 ft 287 kts 257°
2026-05-04 05:42 34.77146 133.69186 14600 ft 287 kts 258°
2026-05-04 05:42 34.76624 133.66850 14082 ft 287 kts 258°
2026-05-04 05:42 34.76102 133.64526 13581 ft 287 kts 259°
2026-05-04 05:42 34.75576 133.62193 13120 ft 285 kts 259°
2026-05-04 05:43 34.75051 133.59874 12602 ft 285 kts 259°
2026-05-04 05:43 34.74527 133.57561 12109 ft 286 kts 259°
2026-05-04 05:43 34.74000 133.55229 11591 ft 286 kts 259°
2026-05-04 05:45 34.70565 133.40144 9901 ft 234 kts 261°
2026-05-04 05:45 34.70136 133.38234 9539 ft 235 kts 260°
2026-05-04 05:47 34.61579 133.28088 7253 ft 267 kts 219°
2026-05-04 05:47 34.60028 133.26862 6925 ft 265 kts 220°
2026-05-04 05:47 34.58479 133.25632 6593 ft 264 kts 220°
2026-05-04 05:48 34.56952 133.24425 6265 ft 262 kts 220°
2026-05-04 05:48 34.55434 133.23228 5943 ft 260 kts 220°
2026-05-04 05:48 34.53927 133.22041 5620 ft 259 kts 220°
2026-05-04 05:48 34.52410 133.20848 5289 ft 257 kts 220°
2026-05-04 05:49 34.50925 133.19678 5045 ft 252 kts 219°
2026-05-04 05:49 34.49477 133.18539 4844 ft 246 kts 220°
2026-05-04 05:49 34.48074 133.17441 4638 ft 241 kts 220°
2026-05-04 05:49 34.46671 133.16336 4385 ft 238 kts 220°
2026-05-04 05:51 34.43609 133.05745 2981 ft 188 kts 273°
2026-05-04 05:51 34.43601 133.04195 2816 ft 179 kts 273°
2026-05-04 05:52 34.43619 133.02734 2593 ft 172 kts 272°
2026-05-04 05:52 34.43638 133.01273 2319 ft 171 kts 272°
2026-05-04 05:52 34.43620 132.99901 2165 ft 155 kts 271°
2026-05-04 05:52 34.43606 132.98650 1928 ft 143 kts 271°
2026-05-04 05:53 34.43603 132.97513 1733 ft 128 kts 272°
2026-05-04 05:54 34.43607 132.91678 1067 ft 16 kts 272°
2026-05-04 05:55 34.43615 132.91563 1064 ft 10 kts 295°
2026-05-04 05:55 34.43653 132.91539 1065 ft 1 kts 354°
2026-05-04 05:55 34.43644 132.91540 1064 ft 0 kts 353°
2026-05-04 05:55 34.43669 132.91538 1065 ft 7 kts 355°
2026-05-04 05:56 34.43739 132.91553 1070 ft 13 kts 40°
2026-05-04 05:56 34.43767 132.91679 1074 ft 19 kts 91°
2026-05-04 05:56 34.43768 132.91823 1078 ft 10 kts 71°
2026-05-04 05:56 34.43819 132.91852 1081 ft 4 kts
2026-05-04 05:57 34.43842 132.91853 1083 ft 4 kts
2026-05-04 05:57 34.43884 132.91853 1086 ft 3 kts 360°
2026-05-04 05:57 34.43899 132.91853 1087 ft 1 kts 359°